• In Romania
  • List of Countries
  • For 7 days
  • Water Temperature
  • Satellite Maps
  • Weather Map
  • Weather Widgets
  • user-avatar
    Login

    Hourly Weather Mozdok

    Today, 24 September, Monday

    Time Temperature Precipitation Wind Pressure Humidity
    00:00 +9°C° 1.8 mm 5 mps 746 mmHg 85%
    01:00 +9°C° 0 mm 5 mps 746 mmHg 86%
    02:00 +8°C° 0 mm 4 mps 746 mmHg 87%
    03:00 +9°C° 0 mm 3 mps 746 mmHg 89%
    04:00 +9°C° 0 mm 3 mps 746 mmHg 90%
    05:00 +8°C° 0 mm 4 mps 746 mmHg 91%
    06:00 +7°C° 0 mm 4 mps 747 mmHg 92%
    07:00 +9°C° 0 mm 3 mps 747 mmHg 87%
    08:00 +10°C° 0 mm 3 mps 747 mmHg 82%
    09:00 +13°C° 0 mm 2 mps 747 mmHg 75%
    10:00 +13°C° 0 mm 3 mps 748 mmHg 68%
    11:00 +14°C° 0 mm 3 mps 748 mmHg 60%
    12:00 +16°C° 0 mm 3 mps 748 mmHg 53%
    13:00 +17°C° 0 mm 3 mps 747 mmHg 50%
    14:00 +17°C° 0 mm 3 mps 747 mmHg 47%
    15:00 +18°C° 0 mm 3 mps 746 mmHg 43%
    16:00 +17°C° 0 mm 3 mps 746 mmHg 47%
    17:00 +16°C° 0 mm 3 mps 745 mmHg 51%
    18:00 +14°C° 0 mm 3 mps 745 mmHg 55%
    19:00 +14°C° 0 mm 4 mps 745 mmHg 54%
    20:00 +13°C° 0 mm 5 mps 744 mmHg 53%
    21:00 +13°C° 0 mm 5 mps 744 mmHg 52%
    22:00 +13°C° 0.1 mm 6 mps 743 mmHg 51%
    23:00 +13°C° 0.1 mm 6 mps 743 mmHg 50%

    Tomorrow, 25 September, Tuesday

    Time Temperature Precipitation Wind Pressure Humidity
    00:00 +14°C° 0.1 mm 6 mps 742 mmHg 49%
    01:00 +12°C° 0.2 mm 7 mps 742 mmHg 53%
    02:00 +12°C° 0.2 mm 7 mps 741 mmHg 56%
    03:00 +12°C° 0.2 mm 7 mps 741 mmHg 59%
    04:00 +12°C° 0.4 mm 7 mps 740 mmHg 67%
    05:00 +11°C° 0.4 mm 6 mps 740 mmHg 74%
    06:00 +11°C° 0.4 mm 6 mps 740 mmHg 82%
    07:00 +11°C° 0.9 mm 6 mps 740 mmHg 83%
    08:00 +10°C° 0.9 mm 6 mps 740 mmHg 84%
    09:00 +10°C° 0.9 mm 6 mps 741 mmHg 85%
    10:00 +10°C° 0.6 mm 6 mps 741 mmHg 81%
    11:00 +10°C° 0.6 mm 6 mps 742 mmHg 77%
    12:00 +10°C° 0.6 mm 6 mps 742 mmHg 73%
    13:00 +10°C° 0 mm 5 mps 743 mmHg 70%
    14:00 +10°C° 0 mm 5 mps 743 mmHg 68%
    15:00 +10°C° 0 mm 5 mps 744 mmHg 65%
    16:00 +10°C° 0 mm 5 mps 744 mmHg 67%
    17:00 +11°C° 0 mm 4 mps 744 mmHg 68%
    18:00 +10°C° 0 mm 3 mps 745 mmHg 70%
    19:00 +10°C° 0 mm 3 mps 745 mmHg 73%
    20:00 +8°C° 0 mm 4 mps 746 mmHg 76%
    21:00 +7°C° 0 mm 4 mps 746 mmHg 80%
    22:00 +7°C° 0 mm 4 mps 747 mmHg 82%
    23:00 +6°C° 0 mm 4 mps 747 mmHg 83%

    Day after tomorrow, 26 September, Wednesday

    Time Temperature Precipitation Wind Pressure Humidity
    00:00 +7°C° 0 mm 3 mps 747 mmHg 85%
    01:00 +5°C° 0 mm 3 mps 748 mmHg 86%
    02:00 +5°C° 0 mm 3 mps 748 mmHg 87%
    03:00 +5°C° 0 mm 3 mps 749 mmHg 88%
    04:00 +4°C° 0 mm 3 mps 749 mmHg 88%
    05:00 +4°C° 0 mm 3 mps 750 mmHg 89%
    06:00 +4°C° 0 mm 3 mps 750 mmHg 90%
    07:00 +5°C° 0 mm 4 mps 751 mmHg 85%
    08:00 +6°C° 0 mm 4 mps 751 mmHg 79%
    09:00 +7°C° 0 mm 4 mps 752 mmHg 74%
    10:00 +8°C° 0 mm 5 mps 752 mmHg 68%
    11:00 +9°C° 0 mm 5 mps 753 mmHg 63%
    12:00 +10°C° 0 mm 5 mps 753 mmHg 58%
    13:00 +10°C° 0 mm 5 mps 753 mmHg 56%
    14:00 +10°C° 0 mm 5 mps 754 mmHg 54%
    15:00 +10°C° 0 mm 5 mps 754 mmHg 53%
    16:00 +11°C° 0 mm 4 mps 754 mmHg 55%
    17:00 +10°C° 0 mm 3 mps 754 mmHg 58%
    18:00 +9°C° 0 mm 3 mps 754 mmHg 61%
    19:00 +8°C° 0 mm 2 mps 755 mmHg 62%
    20:00 +7°C° 0 mm 2 mps 755 mmHg 64%
    21:00 +7°C° 0 mm 2 mps 755 mmHg 66%
    22:00 +6°C° 0 mm 2 mps 755 mmHg 66%
    23:00 +5°C° 0 mm 3 mps 755 mmHg 67%

    27 September, Thursday

    Time Temperature Precipitation Wind Pressure Humidity
    00:00 +4°C° 0 mm 3 mps 755 mmHg 68%
    01:00 +4°C° 0 mm 3 mps 754 mmHg 69%
    02:00 +4°C° 0 mm 3 mps 754 mmHg 70%
    03:00 +4°C° 0 mm 4 mps 754 mmHg 71%
    04:00 +4°C° 0 mm 4 mps 753 mmHg 70%
    05:00 +3°C° 0 mm 5 mps 753 mmHg 69%
    06:00 +3°C° 0 mm 5 mps 752 mmHg 68%
    07:00 +4°C° 0 mm 6 mps 752 mmHg 64%
    08:00 +5°C° 0 mm 7 mps 752 mmHg 60%
    09:00 +6°C° 0 mm 8 mps 751 mmHg 57%
    10:00 +6°C° 0.2 mm 8 mps 751 mmHg 57%
    11:00 +6°C° 0.2 mm 9 mps 750 mmHg 57%
    12:00 +7°C° 0.2 mm 9 mps 750 mmHg 57%
    13:00 +7°C° 0.3 mm 9 mps 749 mmHg 59%
    14:00 +7°C° 0.3 mm 9 mps 749 mmHg 61%
    15:00 +7°C° 0.3 mm 9 mps 748 mmHg 63%
    16:00 +7°C° 0.1 mm 8 mps 748 mmHg 66%
    17:00 +7°C° 0.1 mm 8 mps 748 mmHg 68%
    18:00 +8°C° 0.1 mm 7 mps 747 mmHg 70%
    19:00 +8°C° 0.1 mm 7 mps 747 mmHg 72%
    20:00 +8°C° 0.1 mm 7 mps 747 mmHg 74%
    21:00 +8°C° 0.1 mm 6 mps 747 mmHg 76%
    22:00 +8°C° 0.3 mm 7 mps 747 mmHg 78%
    23:00 +8°C° 0.3 mm 7 mps 746 mmHg 79%

    28 September, Friday

    Time Temperature Precipitation Wind Pressure Humidity
    00:00 +9°C° 0.3 mm 7 mps 746 mmHg 81%
    01:00 +9°C° 0.1 mm 6 mps 746 mmHg 82%
    02:00 +9°C° 0.1 mm 6 mps 746 mmHg 83%
    03:00 +9°C° 0.1 mm 6 mps 746 mmHg 84%
    04:00 +9°C° 0 mm 5 mps 746 mmHg 85%
    05:00 +9°C° 0 mm 5 mps 746 mmHg 87%
    06:00 +9°C° 0 mm 5 mps 746 mmHg 88%
    07:00 +10°C° 0.1 mm 5 mps 746 mmHg 87%
    08:00 +10°C° 0.1 mm 5 mps 746 mmHg 87%
    09:00 +11°C° 0.1 mm 6 mps 746 mmHg 86%
    10:00 +13°C° 0 mm 6 mps 746 mmHg 82%
    11:00 +14°C° 0 mm 7 mps 746 mmHg 79%
    12:00 +15°C° 0 mm 7 mps 745 mmHg 75%
    13:00 +15°C° 0 mm 7 mps 745 mmHg 73%
    14:00 +16°C° 0 mm 8 mps 745 mmHg 70%
    15:00 +16°C° 0 mm 8 mps 745 mmHg 68%
    16:00 +16°C° 0 mm 7 mps 744 mmHg 70%
    17:00 +15°C° 0 mm 6 mps 744 mmHg 72%
    18:00 +14°C° 0 mm 6 mps 744 mmHg 74%
    19:00 +14°C° 0 mm 6 mps 744 mmHg 76%
    20:00 +13°C° 0 mm 6 mps 744 mmHg 78%
    21:00 +13°C° 0 mm 6 mps 745 mmHg 80%
    22:00 +13°C° 0 mm 6 mps 745 mmHg 81%
    23:00 +12°C° 0 mm 5 mps 745 mmHg 83%

    29 September, Saturday

    Time Temperature Precipitation Wind Pressure Humidity
    00:00 +12°C° 0 mm 5 mps 745 mmHg 84%
    01:00 +12°C° 0 mm 4 mps 746 mmHg 85%
    02:00 +11°C° 0 mm 3 mps 746 mmHg 86%
    03:00 +11°C° 0 mm 3 mps 746 mmHg 87%
    04:00 +10°C° 0 mm 2 mps 747 mmHg 88%
    05:00 +10°C° 0 mm 2 mps 747 mmHg 89%
    06:00 +9°C° 0 mm 2 mps 747 mmHg 91%
    07:00 +10°C° 0 mm 2 mps 748 mmHg 86%
    08:00 +10°C° 0 mm 2 mps 748 mmHg 81%
    09:00 +12°C° 0 mm 2 mps 748 mmHg 77%
    10:00 +13°C° 0 mm 2 mps 748 mmHg 74%
    11:00 +13°C° 0 mm 2 mps 749 mmHg 71%
    12:00 +14°C° 0 mm 2 mps 749 mmHg 68%
    13:00 +15°C° 0 mm 2 mps 748 mmHg 68%
    14:00 +15°C° 0 mm 2 mps 748 mmHg 67%
    15:00 +16°C° 0 mm 2 mps 748 mmHg 67%
    16:00 +15°C° 0 mm 1 mps 748 mmHg 70%
    17:00 +14°C° 0 mm 1 mps 748 mmHg 74%
    18:00 +14°C° 0 mm 1 mps 748 mmHg 77%
    19:00 +14°C° 0.1 mm 2 mps 748 mmHg 79%
    20:00 +13°C° 0.1 mm 2 mps 748 mmHg 81%
    21:00 +13°C° 0.1 mm 2 mps 748 mmHg 83%
    22:00 +13°C° 0.4 mm 2 mps 748 mmHg 86%
    23:00 +12°C° 0.4 mm 2 mps 748 mmHg 89%
    Show more